Location: Unspecified
(0.0000°N, 0.0000°E)
Time: 13:28:18
(UTC+02:00)

Ariane H10-3 - Visible Passes

Search period start: 25 August 2016 00:00
Search period end: 04 September 2016 00:00
Orbit: 279 x 20537 km, 7.3° (Epoch: 24 August)

Date Brightness Start Highest point End Pass type
(mag) Time Alt. Az. Time Alt. Az. Time Alt. Az.
25 Aug 7.4 00:52:25 33° E 00:52:25 33° E 03:59:52 10° E visible
25 Aug 8.6 06:53:12 17° W 11:15:26 77° N 11:41:08 10° E visible
26 Aug 7.5 00:55:29 34° E 00:55:29 34° E 04:07:46 10° E visible
26 Aug 8.5 06:56:15 16° W 11:19:28 77° N 11:44:16 10° E visible
27 Aug 7.5 00:58:29 35° E 00:58:29 35° E 04:15:04 10° E visible
27 Aug 8.5 06:59:16 15° W 11:23:24 77° N 11:47:21 10° E visible
28 Aug 7.5 01:01:28 36° E 01:01:28 36° E 04:21:53 10° E visible
28 Aug 8.4 07:02:13 14° W 11:27:15 78° N 11:50:24 10° E visible
29 Aug 7.6 01:04:23 37° E 01:04:23 37° E 04:28:17 10° E visible
29 Aug 8.4 07:05:08 13° W 11:30:59 78° N 11:53:22 10° E visible
30 Aug 9.1 01:07:16 38° E 01:07:16 38° E 04:34:19 10° E visible
30 Aug 8.4 07:08:00 12° W 11:34:38 78° N 11:56:18 10° E visible
31 Aug 9.1 01:10:06 39° E 01:10:06 39° E 04:40:03 10° E visible
31 Aug 8.3 07:10:49 11° W 11:38:11 78° N 11:59:12 10° E visible
01 Sep 9.1 01:12:53 40° E 01:12:53 40° E 04:45:30 10° E visible
01 Sep 8.3 07:13:36 11° W 11:41:39 78° N 12:02:02 10° E visible
02 Sep 9.1 01:15:38 41° E 01:15:38 41° E 04:50:42 10° E visible
02 Sep 8.2 07:16:28 10° W 11:45:03 78° N 12:04:48 10° E visible
03 Sep 9.1 01:18:20 43° E 01:18:20 43° E 04:55:40 10° E visible
03 Sep 8.2 07:20:06 10° W 11:48:21 79° N 12:07:33 10° E visible
